This demonstration page uses our WeatherBlox Daily Observations layout. Learn more.

Left ArrowRight Arrow

39.12711, -84.51439

Hourly Observations for May 7, 2018

Temp ( °F °C ) Dew Point ( °F °C ) Humidity (%) Winds ( mph kmh ) Pressure ( in mb ) Visibility ( mi km ) Precip ( " mm )
12:53 am 00:53 Mostly Cloudy 58 14.4 58 14.4 100 100 SSW 3 6 30.02 1017 8 13 0.00 0.00
1:40 am 01:40 Clear with Mist and Fog 56 13.3 56 13.3 100 100 Calm 30.03 1017 2 3 0.00 0.00
1:53 am 01:53 Clear with Mist and Fog 56 13.3 56 13.3 100 100 Calm 30.01 1016 3 4 0.00 0.00
1:59 am 01:59 Clear with Mist and Fog 55 12.8 55 12.8 100 100 Calm 30.03 1017 1 1 0.00 0.00
2:06 am 02:06 Mostly Cloudy with Fog 55 12.8 55 12.8 100 100 ENE 3 6 30.03 1017 0 0 0.00 0.00
2:27 am 02:27 Mostly Cloudy with Fog 54 12.2 54 12.2 100 100 NE 5 7 30.03 1017 1 1 0.00 0.00
2:35 am 02:35 Mostly Clear with Mist and Fog 54 12.2 54 12.2 100 100 Calm 30.03 1017 2 2 0.00 0.00
2:39 am 02:39 Clear with Mist and Fog 55 12.8 55 12.8 100 100 Calm 30.03 1017 3 5 0.00 0.00
2:53 am 02:53 Clear with Mist and Fog 56 13.3 56 13.3 100 100 Calm 30.01 1016 4 6 0.00 0.00
2:58 am 02:58 Clear with Mist and Fog 54 12.2 54 12.2 100 100 Calm 30.03 1017 2 3 0.00 0.00
3:07 am 03:07 Clear with Fog 54 12.2 54 12.2 100 100 Calm 30.03 1017 0 0 0.00 0.00
3:14 am 03:14 Mostly Cloudy with Fog 53 11.7 53 11.7 100 100 Calm 30.03 1017 0 0 0.00 0.00
3:29 am 03:29 Mostly Cloudy with Fog 52 11.1 52 11.1 100 100 Calm 30.03 1017 0 0 0.00 0.00
3:53 am 03:53 Cloudy with Fog 53 11.7 53 11.7 100 100 Calm 30.02 1017 0 0 0.00 0.00
4:02 am 04:02 Cloudy with Mist and Fog 54 12.2 54 12.2 100 100 NNE 3 6 30.03 1017 1 2 0.00 0.00
4:08 am 04:08 Cloudy with Mist and Fog 53 11.7 53 11.7 100 100 Calm 30.03 1017 3 5 0.00 0.00
4:15 am 04:15 Cloudy with Mist and Fog 53 11.7 53 11.7 100 100 NNE 3 6 30.03 1017 2 2 0.00 0.00
4:26 am 04:26 Mostly Cloudy with Fog 54 12.2 54 12.2 100 100 NNE 3 6 30.03 1017 0 0 0.00 0.00
4:53 am 04:53 Mostly Cloudy with Fog 54 12.2 54 12.2 100 100 NNE 3 6 30.03 1017 0 0 0.00 0.00
5:53 am 05:53 Mostly Cloudy with Fog 54 12.2 54 12.2 100 100 Calm 30.05 1018 0 0 0.00 0.00
6:03 am 06:03 Mostly Cloudy with Fog 55 12.8 55 12.8 100 100 Calm 30.06 1018 0 0 0.00 0.00
6:16 am 06:16 Cloudy with Mist and Fog 54 12.2 54 12.2 100 100 ENE 3 6 30.06 1018 1 1 0.00 0.00
6:21 am 06:21 Cloudy with Mist and Fog 55 12.8 55 12.8 100 100 NE 3 6 30.06 1018 2 3 0.00 0.00
6:24 am 06:24 Cloudy with Mist and Fog 55 12.8 55 12.8 100 100 NE 3 6 30.06 1018 3 5 0.00 0.00
6:42 am 06:42 Cloudy with Mist and Fog 55 12.8 55 12.8 100 100 NNE 6 9 30.09 1019 5 8 0.00 0.00
6:53 am 06:53 Mostly Cloudy with Mist and Fog 55 12.8 55 12.8 100 100 NNE 6 9 30.08 1019 5 8 0.00 0.00
7:53 am 07:53 Mostly Cloudy with Mist and Fog 57 13.9 55 12.8 93 93 NNE 6 9 30.11 1020 6 10 0.00 0.00
8:10 am 08:10 Partly Cloudy 57 13.9 54 12.2 90 90 NE 8 13 30.12 1020 8 13 0.00 0.00
8:53 am 08:53 Mostly Sunny 59 15 52 11.1 78 78 NNE 9 15 30.13 1020 10 16 0.00 0.00
9:53 am 09:53 Sunny 62 16.7 53 11.7 73 73 NE 9 15 30.14 1021 10 16 0.00 0.00
10:53 am 10:53 Mostly Sunny 65 18.3 54 12.2 68 68 N 10 17 30.14 1021 10 16 0.00 0.00
11:53 am 11:53 Mostly Sunny 67 19.4 54 12.2 63 63 NE 13 20 30.15 1021 10 16 0.00 0.00
12:53 pm 12:53 Mostly Sunny 70 21.1 52 11.1 53 53 NNE 9 15 30.14 1021 10 16 0.00 0.00
1:53 pm 13:53 Partly Cloudy 71 21.7 52 11.1 51 51 NE 8 13 30.13 1020 10 16 0.00 0.00
2:53 pm 14:53 Mostly Cloudy 70 21.1 51 10.6 51 51 N 8 13 30.13 1020 10 16 0.00 0.00
3:53 pm 15:53 Mostly Cloudy 71 21.7 51 10.6 49 49 NE 7 11 30.12 1020 10 16 0.00 0.00
4:53 pm 16:53 Sunny 74 23.3 50 10 43 43 N 7 11 30.11 1020 10 16 0.00 0.00
5:53 pm 17:53 Mostly Cloudy 73 22.8 50 10 44 44 N 15 24 30.11 1020 10 16 0.00 0.00
6:53 pm 18:53 Partly Cloudy 72 22.2 48 8.9 43 43 N 10 17 30.11 1020 10 16 0.00 0.00
7:53 pm 19:53 Mostly Sunny 68 20 47 8.3 47 47 NNE 8 13 30.11 1020 10 16 0.00 0.00
8:53 pm 20:53 Clear 63 17.2 47 8.3 56 56 Calm 30.12 1020 10 16 0.00 0.00
9:53 pm 21:53 Clear 57 13.9 51 10.6 81 81 Calm 30.14 1021 10 16 0.00 0.00
10:53 pm 22:53 Clear 54 12.2 50 10 87 87 Calm 30.16 1021 10 16 0.00 0.00
11:53 pm 23:53 Clear 52 11.1 50 10 93 93 Calm 30.16 1021 10 16 0.00 0.00

Powered by AerisWeather